Marion, IN

6:58 PM EST on December 16, 2017 (GMT -0500)
Marion Municipal

Weather History for KMZZ - January, 2014

Change the Weather History Date:

Sunday, January 5, 2014

  Actual Average (KMIE) Record (KMIE)
Temperature  
Mean Temperature 27 °F -  
Max Temperature 34 °F 34 °F 57 °F (1998)
Min Temperature 20 °F 19 °F -9 °F (1999)
Degree Days  
Heating Degree Days 38    
Moisture  
Dew Point 27 °F    
Average Humidity 90    
Maximum Humidity 100    
Minimum Humidity 64    
Precipitation  
Precipitation 0.50 in - - ()
Sea Level Pressure  
Sea Level Pressure 29.82 in    
Wind  
Wind Speed 7 mph (NNE)    
Max Wind Speed 17 mph    
Max Gust Speed 26 mph    
Visibility 3 miles    
Events Snow    
Averages and records for this station are not official NWS values.
T = Trace of Precipitation, MM = Missing Value Source: NWS Daily Summary

Daily Weather History Graph

Daily Weather History Graph

Search for Another Location

Airport or City:

Trip Planner

Search our weather history database for the weather conditions in past years. The results will help you decide how hot, cold, wet, or windy it might be!

Date:

Astronomy

Jan. 05, 2014 Rise Set
Actual Time 8:06 AM EST 5:30 PM EST
Civil Twilight 7:35 AM EST 6:00 PM EST
Nautical Twilight 7:01 AM EST 6:34 PM EST
Astronomical Twilight 6:28 AM EST 7:08 PM EST
Moon 10:46 AM EST (1/5) 10:58 PM EST (1/5)
Length of Visible Light 10h 25m
Length of Day
9h 24m
Waxing Crescent, 24% of the Moon is Illuminated
Jan 5
Waxing Crescent
Jan 7
First Quarter
Jan 15
Full
Jan 24
Last Quarter
Jan 30
New

Hourly Weather History & Observations

Time (EST) Temp. Windchill Dew Point Humidity Pressure Visibility Wind Dir Wind Speed Gust Speed Precip Events Conditions
12:15 AM 33.1 °F 24.9 °F 23.0 °F 66% 30.00 in 7.0 mi SW 10.4 mph - N/A   Overcast
12:35 AM 34.0 °F 26.6 °F 23.5 °F 66% 30.00 in 7.0 mi SSW 9.2 mph - N/A   Overcast
12:55 AM 34.0 °F 26.6 °F 23.0 °F 64% 30.00 in 10.0 mi SW 9.2 mph - N/A   Overcast
1:15 AM 33.8 °F 27.7 °F 23.5 °F 66% 30.00 in 7.0 mi SW 6.9 mph - N/A   Overcast
1:35 AM 33.3 °F 27.9 °F 24.1 °F 69% 30.00 in 10.0 mi SW 5.8 mph - N/A   Overcast
1:55 AM 32.5 °F 28.1 °F 24.6 °F 73% 29.99 in 10.0 mi SW 4.6 mph - N/A   Overcast
2:15 AM 32.2 °F 28.9 °F 24.6 °F 74% 30.00 in 10.0 mi SW 3.5 mph - N/A   Overcast
2:35 AM 32.0 °F - 24.3 °F 73% 30.00 in 10.0 mi Calm Calm - N/A   Overcast
2:55 AM 32.0 °F 27.5 °F 24.3 °F 73% 30.00 in 10.0 mi South 4.6 mph - N/A   Overcast
3:15 AM 32.0 °F 27.5 °F 24.3 °F 73% 30.00 in 10.0 mi SSW 4.6 mph - N/A   Overcast
3:35 AM 32.5 °F 28.1 °F 23.9 °F 70% 29.97 in 10.0 mi SSE 4.6 mph - N/A   Overcast
3:55 AM 32.2 °F 28.9 °F 24.4 °F 73% 29.99 in 7.0 mi South 3.5 mph - N/A   Overcast
4:15 AM 32.0 °F 26.4 °F 25.0 °F 75% 29.98 in 10.0 mi SW 5.8 mph - N/A   Overcast
4:35 AM 32.9 °F 27.5 °F 26.1 °F 76% 29.98 in 10.0 mi WSW 5.8 mph - N/A   Overcast
4:55 AM 32.9 °F 29.8 °F 26.8 °F 78% 29.97 in 10.0 mi WSW 3.5 mph - N/A   Overcast
5:15 AM 32.2 °F - 27.1 °F 82% 29.96 in 7.0 mi Calm Calm - N/A   Overcast
5:35 AM 31.8 °F - 27.0 °F 82% 29.96 in 7.0 mi Calm Calm - N/A   Overcast
5:55 AM 32.0 °F - 26.4 °F 80% 29.95 in 7.0 mi Calm Calm - N/A   Overcast
6:15 AM 31.8 °F - 27.0 °F 82% 29.95 in 10.0 mi Calm Calm - N/A   Overcast
6:35 AM 32.0 °F - 26.4 °F 80% 29.95 in 10.0 mi Calm Calm - N/A   Overcast
6:55 AM 31.5 °F - 26.8 °F 83% 29.96 in 4.0 mi Calm Calm - N/A Snow Light Snow
7:15 AM 31.1 °F - 27.3 °F 86% 29.96 in 2.0 mi Calm Calm - N/A Snow Light Snow
7:35 AM 30.6 °F - 28.8 °F 93% 29.96 in 1.2 mi Calm Calm - N/A Snow Light Snow
7:55 AM 30.2 °F 26.7 °F 29.7 °F 98% 29.96 in 1.2 mi East 3.5 mph - 0.01 in Snow Light Snow
8:15 AM 30.4 °F 25.6 °F 30.2 °F 99% 29.94 in 1.0 mi East 4.6 mph - N/A Snow Light Snow
8:35 AM 30.6 °F 27.1 °F 30.4 °F 99% 29.94 in 1.0 mi East 3.5 mph - 0.01 in Snow Light Snow
8:55 AM 30.7 °F 27.3 °F 30.7 °F 100% 29.93 in 1.0 mi East 3.5 mph - 0.01 in Snow Light Snow
9:15 AM 30.9 °F 26.2 °F 30.9 °F 100% 29.92 in 0.8 mi East 4.6 mph - N/A Snow Light Snow
9:35 AM 31.3 °F 27.9 °F 31.3 °F 100% 29.92 in 0.8 mi East 3.5 mph - 0.01 in Snow Light Snow
9:55 AM 31.6 °F 27.0 °F 31.6 °F 100% 29.91 in 0.8 mi East 4.6 mph - 0.01 in Snow Light Snow
10:15 AM 31.8 °F 26.2 °F 31.8 °F 100% 29.90 in 0.8 mi East 5.8 mph - N/A Snow Light Snow
10:35 AM 32.0 °F 26.4 °F 32.0 °F 100% 29.89 in 0.5 mi ENE 5.8 mph - 0.01 in Snow Light Snow
10:55 AM 32.0 °F 27.5 °F 32.0 °F 100% 29.88 in 0.5 mi East 4.6 mph - 0.03 in Snow Light Snow
11:15 AM 32.0 °F 25.6 °F 32.0 °F 100% 29.86 in 0.5 mi ENE 6.9 mph - 0.01 in Snow Light Snow
11:35 AM 32.0 °F 26.4 °F 32.0 °F 100% 29.84 in 0.8 mi NE 5.8 mph - 0.02 in Snow Light Snow
11:55 AM 32.0 °F 25.6 °F 32.0 °F 100% 29.81 in 0.8 mi NE 6.9 mph - 0.04 in Snow Light Snow
12:15 PM 32.0 °F 25.6 °F 32.0 °F 100% 29.78 in 0.8 mi NE 6.9 mph - 0.02 in Snow Light Snow
12:35 PM 32.0 °F 24.8 °F 32.0 °F 100% 29.75 in 0.5 mi ENE 8.1 mph - 0.05 in Snow Light Snow
12:55 PM 32.0 °F 25.6 °F 32.0 °F 100% 29.73 in 1.0 mi ENE 6.9 mph - 0.07 in Snow Light Snow
1:15 PM 32.0 °F 24.2 °F 32.0 °F 100% 29.71 in 0.8 mi ENE 9.2 mph - 0.01 in Snow Light Snow
1:35 PM 32.0 °F 25.6 °F 32.0 °F 100% 29.70 in 0.8 mi ENE 6.9 mph - 0.04 in Snow Light Snow
1:55 PM 32.0 °F 25.6 °F 32.0 °F 100% 29.69 in 0.5 mi NE 6.9 mph - 0.07 in Snow Light Snow
2:15 PM 32.0 °F 25.6 °F 32.0 °F 100% 29.68 in 0.5 mi NE 6.9 mph - 0.04 in Snow Light Snow
2:35 PM 31.8 °F 24.6 °F 31.8 °F 100% 29.66 in 0.5 mi NE 8.1 mph - 0.07 in Snow Light Snow
2:55 PM 32.0 °F 25.6 °F 32.0 °F 100% 29.69 in 0.5 mi NE 6.9 mph - 0.11 in Snow Light Snow
3:15 PM 32.0 °F 25.6 °F 32.0 °F 100% 29.67 in 0.5 mi NE 6.9 mph - 0.04 in Snow Light Snow
3:35 PM 32.0 °F 25.6 °F 32.0 °F 100% 29.65 in 0.5 mi NNE 6.9 mph - 0.08 in Snow Light Snow
3:55 PM 31.8 °F 23.3 °F 31.8 °F 100% 29.63 in 0.5 mi NNE 10.4 mph - 0.11 in Snow Light Snow
4:15 PM 31.8 °F 23.9 °F 31.6 °F 99% 29.64 in 1.2 mi NNE 9.2 mph - 0.01 in Snow Light Snow
4:35 PM 31.6 °F 23.1 °F 31.3 °F 99% 29.63 in 1.0 mi North 10.4 mph - 0.02 in Snow Light Snow
4:55 PM 31.3 °F 21.6 °F 30.9 °F 99% 29.62 in 0.8 mi NNE 12.7 mph - 0.03 in Snow Light Snow
5:15 PM 30.9 °F 21.2 °F 30.7 °F 99% 29.63 in 1.0 mi North 12.7 mph - N/A Snow Light Snow
5:35 PM 30.6 °F 19.8 °F 30.2 °F 99% 29.62 in 0.8 mi North 15.0 mph 19.6 mph 0.01 in Snow Light Snow
5:55 PM 28.9 °F 18.6 °F 28.6 °F 99% 29.62 in 0.8 mi North 12.7 mph 20.7 mph 0.01 in Snow Light Snow
6:15 PM 27.0 °F 15.6 °F 26.1 °F 96% 29.62 in 1.0 mi North 13.8 mph 26.5 mph N/A Snow Light Snow
6:35 PM 25.2 °F 12.0 °F 23.9 °F 95% 29.62 in 0.8 mi North 17.3 mph 26.5 mph N/A Snow Light Snow
6:55 PM 24.3 °F 12.7 °F 23.2 °F 96% 29.64 in 1.0 mi North 12.7 mph 20.7 mph N/A Snow Light Snow
7:15 PM 23.2 °F 12.6 °F 21.9 °F 95% 29.64 in 1.2 mi North 10.4 mph 24.2 mph N/A Snow Light Snow
7:35 PM 22.5 °F 8.9 °F 21.0 °F 94% 29.65 in 1.5 mi North 16.1 mph 21.9 mph N/A Snow Light Snow
7:55 PM 22.5 °F 9.4 °F 21.0 °F 94% 29.66 in 1.5 mi North 15.0 mph 21.9 mph N/A Snow Light Snow
8:15 PM 22.5 °F 8.5 °F 20.8 °F 93% 29.66 in 2.0 mi NNW 17.3 mph 24.2 mph N/A Snow Light Snow
8:35 PM 22.1 °F 9.5 °F 20.3 °F 93% 29.67 in 1.8 mi NNW 13.8 mph 19.6 mph N/A Snow Light Snow
8:55 PM 22.1 °F 9.5 °F 20.3 °F 93% 29.68 in 2.5 mi NNW 13.8 mph 20.7 mph N/A Snow Light Snow
9:15 PM 21.6 °F 8.2 °F 19.6 °F 92% 29.69 in 1.5 mi NNW 15.0 mph 24.2 mph N/A Snow Light Snow
9:35 PM 20.8 °F 6.8 °F 18.7 °F 91% 29.70 in 2.0 mi NNW 16.1 mph 24.2 mph N/A Snow Light Snow
9:55 PM 20.7 °F 7.6 °F 18.3 °F 91% 29.71 in 3.0 mi NNW 13.8 mph 23.0 mph N/A Snow Light Snow
10:15 PM 20.8 °F 7.3 °F 18.7 °F 91% 29.71 in 1.2 mi NNW 15.0 mph 19.6 mph N/A Snow Light Snow